SCOUT A DEB, 2778

Orbit data source: Space-Track

SCOUT A DEB, 2778 is space debris in LEO originally from a launch on Fri, 14 Apr 1967 UTC launched from the Air Force Western Test Range (AFWTR). Debris objects in space refer to the collection of defunct objects orbiting the Earth. Examples of debris include non-operational satellites, rocket bodies, and fragments generated from explosions, collisions, or faulty payload assembly.

Loading next visibility...
Identifier
2778, 1967-034D
Orbit
LEO
Last TLE update
22 hours ago
Origin
Manufacturer
Unknown
Mission
Spacecraft
Bus & Motor
Unknown
Mass
Unknown
Launch date (UTC)
1967-04-14 (58 years ago)
Launch vehicle
Unknown
Launch site
Air Force Western Test Range (AFWTR)
Object type
Payload
Rocket body
Debris
Shape & HBR
Unknown
Radar Cross Section
Small (<0.1 m²)

Expand to show TLE details & history

TLE from 22 hours ago
0 SCOUT A DEB
1 02778U 67034D   25181.81005517  .00000140  00000-0  25138-3 0  9995
2 02778  89.8367  42.8999 0121134 265.2996 226.0260 13.35117701826260
Epoch: 2025-06-30T19:26Z
TLE epoch observation values (Epoch: 2025-06-30T19:26:28.766Z)
Latitude
49.75428°
Longitude
11.97357°
Altitude
1,199.182 km
Speed
7.228 km/s
True Right ascension
14h 50m 49s
True Declination
49° 35' 40"
Sunlit
Object was in daylight at epoch
Visualization orbit readout
Latitude
-75.64002°
Longitude
-168.48401°
Altitude
1,070.426 km
Speed
7.358 km/s
Apparent Right ascension
18h 41m 55s
Apparent Declination
-71° 59' 05"
Sunlit
Object is in daylight
Visualization observer readout
Local Sidereal Time
05:26:55
Azimuth
190.405° SSW
Elevation
-56.597°
Doppler factor
1
Orbital elements
Apogee altitude
1,215.476 km
Perigee altitude
1,033.709 km
Semi-major axis
7,502.73 km
Eccentricity
0.01211
Inclination
89.8367°
RAAN
42.8999°
Arg. of periapsis
265.2996°
True anomaly
Unknown
Mean anomaly
226.026°
Eccentric anomaly
Unknown
Mean motion
3.33975 °/min
Orbital period
107.79 mins
BSTAR
0.00025138
Loading maneuver chart data...
Loading SW <> Apogee altitude chart data...
Loading historical data...
Loading historical data...
Loading historical data...
Loading historical data...
Loading historical data...
Loading historical data...
Loading historical data...

SCOUT A DEB Visibility forecast

Observer location: undefined°, undefined°

Span
Click to sort rows by Start time (UTC) header in descending order
Start Az.
Max El. time (UTC)
Max El. Az.
Max El.
End time (UTC)
End Az.
11 mins2025-07-02 01:58:15.717Z24.615° NE2025-07-02 02:04:15.717Z87.41° E27.2°2025-07-02 02:09:15.717Z138.476° SSE
12 mins2025-07-02 03:46:15.717Z345.675° N2025-07-02 03:51:15.717Z290.636° WNW35.536°2025-07-02 03:58:15.717Z210.142° SW
11 mins2025-07-02 14:04:15.717Z133.28° SE2025-07-02 14:09:15.717Z78.547° E29.812°2025-07-02 14:15:15.717Z17.387° NNE
12 mins2025-07-02 15:51:15.717Z209.825° SW2025-07-02 15:57:15.717Z283.667° WNW33.709°2025-07-02 16:03:15.717Z343.056° N
|